Location: Dammartin
(48.9032°N, 1.6195°E)
Time: 11:37:49
(UTC+00:00)

Cosmos 1844 - Pass Details

Date: 03 February 2023
Orbit: 822 x 868 km, 70.9° (Epoch: 25 March)

Event Time Altitude Azimuth Distance (km) Brightness Sun altitude
Rises 17:54:55 0° 333° (NNW) 3,465 7.1 -10.3°
Reaches altitude 10° 17:57:27 10° 337° (NNW) 2,524 6.3 -10.7°
Maximum altitude 18:03:12 59° 57° (ENE) 1,002 3.8 -11.6°
Drops below altitude 10° 18:08:52 10° 136° (SE) 2,497 5.8 -12.6°
Sets 18:11:21 0° 141° (SE) 3,424 6.6 -13.0°
